Flag for Germany Weather past 2 weeks in Coburg, Bavaria, Germany

Now
44 °F

Overcast.


Feels Like: 42 °F
Forecast: 42 / 46 °F
Wind: 5 mph from Southwest

Location: Bamberg

Current Time: Dec 22, 2014 at 2:09:15 PM

Latest Report: Dec 22, 2014 at 1:00 PM


Visibility: 41 mi

Pressure: 30.22 "Hg

Humidity: 78%

Dew point: 38 °F

Location of CoburgLocation

Historic Weather in Coburg — Graph

°F

Coburg temperature yesterday

Maximum temperature yesterday: 43 °F (at 1:00 PM)
Minimum temperature yesterday: 38 °F (at 9:00 AM)
Average temperature yesterday: 41 °F

Past Weeks' High & Low Weather Summary

 TemperatureHumidityPressure
High54 °F (Dec 19, 12:00 AM)100% (Dec 8, 7:00 PM)30.50 "Hg (Dec 8, 7:00 PM)
Low24 °F (Dec 9, 1:00 AM)62% (Dec 15, 3:00 PM)29.69 "Hg (Dec 12, 7:00 PM)
Average41 °F90%30.07 "Hg
* Reported Dec 7 1:00 PM — Dec 22 1:00 PM, Coburg, Weather by CustomWeather, © 2014

Note: Actual official high and low records may vary slightly from our data, if they occured in-between our weather recording intervals... More about our weather records

Advertising

Coburg weather history for previous 24 hours

 ConditionsComfort  
Time TempWeatherWind HumidityBarometerVisibility
1:00 PM
Dec 22
44 °FOvercast.5 mph78%30.22 "Hg40 mi
12:00 PM44 °FOvercast.6 mph77%30.24 "Hg34 mi
11:00 AM44 °FOvercast.2 mph76%30.26 "Hg37 mi
10:00 AM44 °FOvercast.3 mph76%30.27 "Hg37 mi
9:00 AM43 °FOvercast.3 mph79%30.26 "Hg37 mi
8:00 AM43 °FOvercast.3 mph76%30.27 "Hg37 mi
7:00 AM43 °FOvercast.5 mph76%30.26 "Hg43 mi
6:00 AM43 °FOvercast.5 mph74%30.27 "Hg43 mi
5:00 AM43 °FOvercast.3 mph75%30.27 "Hg43 mi
4:00 AM44 °FOvercast.3 mph73%30.30 "Hg43 mi
3:00 AM43 °FOvercast.6 mph75%30.31 "Hg43 mi
2:00 AM43 °FOvercast.5 mph78%30.32 "Hg43 mi
1:00 AM42 °FDrizzle. Overcast.5 mph82%30.34 "Hg31 mi
12:00 AM42 °FLight freezing rain. Overcast.6 mph81%30.35 "Hg25 mi
11:00 PM
Dec 21
43 °FLight rain. Overcast.6 mph76%30.34 "Hg28 mi
10:00 PM42 °FOvercast.6 mph76%30.35 "Hg40 mi
9:00 PM43 °FOvercast.5 mph75%30.37 "Hg34 mi
8:00 PM42 °FOvercast.5 mph77%30.39 "Hg37 mi
7:00 PM42 °FOvercast.5 mph80%30.38 "Hg28 mi
6:00 PM42 °FOvercast.5 mph78%30.40 "Hg28 mi
5:00 PM41 °FOvercast.3 mph80%30.41 "Hg31 mi
4:00 PM42 °FDrizzle. Overcast.3 mph80%30.43 "Hg17 mi
3:00 PM42 °FOvercast.2 mph78%30.43 "Hg28 mi
2:00 PM42 °FOvercast.2 mph76%30.44 "Hg25 mi
Weather by CustomWeather, © 2014

See weather overviewHow to use our weather pages